DeKalb, IL

10:59 PM CDT on May 22, 2017 (GMT -0500)
De Kalb Taylor Municipal

Weather History for KDKB - November, 2013

Change the Weather History Date:

Sunday, November 24, 2013

  Actual Average (KARR) Record (KARR)
Temperature  
Mean Temperature 17 °F -  
Max Temperature 24 °F 42 °F 63 °F (2001)
Min Temperature 10 °F 27 °F 8 °F (2013)
Degree Days  
Heating Degree Days 48    
Moisture  
Dew Point 6 °F    
Average Humidity 57    
Maximum Humidity 74    
Minimum Humidity 39    
Precipitation  
Precipitation 0.00 in - - ()
Sea Level Pressure  
Sea Level Pressure 30.54 in    
Wind  
Wind Speed 8 mph (SW)    
Max Wind Speed 16 mph    
Max Gust Speed 21 mph    
Visibility 10 miles    
Events      
Averages and records for this station are not official NWS values.
T = Trace of Precipitation, MM = Missing Value Source: NWS Daily Summary

Daily Weather History Graph

Daily Weather History Graph

Search for Another Location

Airport or City:

Trip Planner

Search our weather history database for the weather conditions in past years. The results will help you decide how hot, cold, wet, or windy it might be!

Date:

Astronomy

Nov. 24, 2013 Rise Set
Actual Time 6:55 AM CST 4:27 PM CST
Civil Twilight 6:24 AM CST 4:58 PM CST
Nautical Twilight 5:50 AM CST 5:32 PM CST
Astronomical Twilight 5:17 AM CST 6:05 PM CST
Moon 10:56 PM CST (11/24) 11:40 AM CST (11/24)
Length of Visible Light 10h 33m
Length of Day
9h 31m
Waning Gibbous, 60% of the Moon is Illuminated
Nov 24
Waning Gibbous
Nov 25
Last Quarter
Dec 2
New
Dec 9
First Quarter
Dec 17
Full

Hourly Weather History & Observations

Time (CST) Temp. Windchill Dew Point Humidity Pressure Visibility Wind Dir Wind Speed Gust Speed Precip Events Conditions
12:15 AM 10.9 °F 1.4 °F 3.4 °F 72% 30.68 in 10.0 mi WNW 5.8 mph - N/A   Clear
12:35 AM 10.4 °F -0.4 °F 3.7 °F 74% 30.68 in 10.0 mi WNW 6.9 mph - N/A   Clear
12:55 AM 10.2 °F -0.6 °F 3.2 °F 73% 30.68 in 10.0 mi NW 6.9 mph - N/A   Clear
1:15 AM - - - N/A% 30.68 in 10.0 mi NW 3.5 mph - N/A   Clear
1:35 AM - - - N/A% 30.67 in 10.0 mi NW 4.6 mph - N/A   Clear
1:55 AM - - - N/A% 30.67 in 10.0 mi NNW 4.6 mph - N/A   Clear
2:15 AM - - - N/A% 30.67 in 10.0 mi NW 4.6 mph - N/A   Clear
2:35 AM - - - N/A% 30.67 in 10.0 mi NNW 4.6 mph - N/A   Clear
2:55 AM - - - N/A% 30.67 in 10.0 mi WNW 5.8 mph - N/A   Clear
3:15 AM - - - N/A% - 10.0 mi WNW 6.9 mph - N/A   Clear
3:35 AM - - - N/A% - 10.0 mi NW 3.5 mph - N/A   Clear
3:55 AM - - - N/A% - 10.0 mi Calm Calm - N/A   Unknown
4:15 AM - - - N/A% - 10.0 mi NW 5.8 mph - N/A   Clear
5:35 AM - - - N/A% - 10.0 mi North - - N/A   Unknown
5:55 AM - - - N/A% - 10.0 mi North - - N/A   Unknown
6:15 AM - - - N/A% - 10.0 mi North - - N/A   Unknown
6:35 AM - - - N/A% - 10.0 mi WNW 6.9 mph - N/A   Unknown
6:55 AM - - - N/A% - 10.0 mi West 6.9 mph - N/A   Unknown
7:15 AM - - - N/A% - 10.0 mi North - - N/A   Unknown
7:55 AM - - - N/A% 30.69 in 10.0 mi WNW 5.8 mph - N/A   Clear
8:15 AM - - - N/A% 30.69 in 10.0 mi West 6.9 mph - N/A   Clear
8:35 AM - - - N/A% - 10.0 mi North - - N/A   Unknown
8:55 AM 14.0 °F 2.9 °F 5.9 °F 70% 30.70 in 10.0 mi West 8.1 mph - N/A   Unknown
9:15 AM 14.7 °F 2.9 °F 5.7 °F 68% 30.70 in 10.0 mi West 9.2 mph - N/A   Clear
9:35 AM 16.0 °F 4.4 °F 5.5 °F 63% 30.69 in 10.0 mi West 9.2 mph - N/A   Clear
9:55 AM 16.3 °F 4.9 °F 5.0 °F 61% 30.69 in 10.0 mi WSW 9.2 mph - N/A   Clear
10:15 AM 18.0 °F 9.8 °F 4.8 °F 57% 30.68 in 10.0 mi WSW 5.8 mph - N/A   Clear
10:35 AM 18.1 °F 8.9 °F 5.2 °F 57% 30.68 in 10.0 mi SW 6.9 mph - N/A   Clear
10:55 AM 19.0 °F 9.0 °F 5.0 °F 54% 30.66 in 10.0 mi SW 8.1 mph - N/A   Clear
11:15 AM 19.6 °F 10.6 °F 4.6 °F 52% 30.65 in 10.0 mi SW 6.9 mph - N/A   Clear
11:35 AM 20.8 °F 10.4 °F 3.9 °F 48% 30.63 in 10.0 mi West 9.2 mph - N/A   Clear
11:55 AM 20.8 °F 9.7 °F 4.1 °F 49% 30.61 in 10.0 mi WSW 10.4 mph - N/A   Clear
12:15 PM 22.1 °F 11.3 °F 4.8 °F 48% 30.59 in 10.0 mi WSW 10.4 mph - N/A   Clear
12:35 PM 22.5 °F 11.7 °F 3.7 °F 45% 30.58 in 10.0 mi SW 10.4 mph - N/A   Clear
12:55 PM 23.0 °F 13.1 °F 3.4 °F 43% 30.57 in 10.0 mi SW 9.2 mph 16.1 mph N/A   Clear
1:15 PM 23.5 °F 16.4 °F 2.8 °F 41% 30.56 in 10.0 mi SW 5.8 mph - N/A   Clear
1:35 PM 24.1 °F 13.7 °F 3.4 °F 41% 30.55 in 10.0 mi WSW 10.4 mph - N/A   Clear
1:55 PM 24.3 °F 14.6 °F 4.6 °F 43% 30.54 in 10.0 mi SW 9.2 mph - N/A   Clear
2:15 PM 24.6 °F 15.1 °F 3.7 °F 41% 30.54 in 10.0 mi SSW 9.2 mph - N/A   Clear
2:35 PM 24.6 °F 15.1 °F 2.7 °F 39% 30.53 in 10.0 mi SW 9.2 mph - N/A   Clear
2:55 PM 24.4 °F 14.2 °F 4.1 °F 42% 30.53 in 10.0 mi SSW 10.4 mph - N/A   Clear
3:15 PM 24.1 °F 14.4 °F 3.6 °F 41% 30.52 in 10.0 mi SSW 9.2 mph 16.1 mph N/A   Clear
3:35 PM 24.4 °F 13.5 °F 3.2 °F 40% 30.51 in 10.0 mi SSW 11.5 mph - N/A   Clear
3:55 PM 23.5 °F 11.8 °F 3.4 °F 42% 30.51 in 10.0 mi SSW 12.7 mph - N/A   Clear
4:15 PM 22.8 °F 10.9 °F 3.9 °F 44% 30.50 in 10.0 mi SSW 12.7 mph 17.3 mph N/A   Clear
4:35 PM 21.2 °F 10.9 °F 5.7 °F 51% 30.49 in 10.0 mi SSW 9.2 mph - N/A   Clear
4:55 PM 20.3 °F 9.8 °F 6.3 °F 55% 30.49 in 10.0 mi SSW 9.2 mph - N/A   Clear
5:15 PM 19.8 °F 9.1 °F 7.3 °F 59% 30.48 in 10.0 mi SSW 9.2 mph - N/A   Clear
5:35 PM 19.2 °F 8.4 °F 7.5 °F 60% 30.48 in 10.0 mi SSW 9.2 mph - N/A   Clear
5:55 PM 19.2 °F 8.4 °F 7.2 °F 59% 30.47 in 10.0 mi SSW 9.2 mph - N/A   Clear
6:15 PM 19.0 °F 9.0 °F 7.2 °F 60% 30.46 in 10.0 mi SSW 8.1 mph - N/A   Clear
6:35 PM 19.0 °F 8.2 °F 7.5 °F 61% 30.46 in 10.0 mi SSW 9.2 mph - N/A   Clear
6:55 PM 19.4 °F 8.6 °F 7.3 °F 60% 30.46 in 10.0 mi SSW 9.2 mph - N/A   Clear
7:15 PM 18.5 °F 7.5 °F 7.5 °F 62% 30.45 in 10.0 mi South 9.2 mph - N/A   Clear
7:35 PM 18.1 °F 7.1 °F 8.4 °F 66% 30.43 in 10.0 mi South 9.2 mph - N/A   Clear
7:55 PM 18.1 °F 6.3 °F 8.6 °F 66% 30.42 in 10.0 mi South 10.4 mph - N/A   Clear
8:15 PM 18.5 °F 6.1 °F 9.0 °F 66% 30.41 in 10.0 mi South 11.5 mph - N/A   Clear
8:35 PM 18.9 °F 6.5 °F 9.1 °F 66% 30.41 in 10.0 mi South 11.5 mph - N/A   Clear
8:55 PM 18.5 °F 5.5 °F 9.5 °F 68% 30.40 in 10.0 mi SSW 12.7 mph - N/A   Clear
9:15 PM 18.5 °F 6.1 °F 9.0 °F 66% 30.40 in 10.0 mi SSW 11.5 mph - N/A   Clear
9:35 PM 18.5 °F 6.1 °F 9.0 °F 66% 30.39 in 10.0 mi SSW 11.5 mph - N/A   Clear
9:55 PM 18.5 °F 6.8 °F 9.0 °F 66% 30.39 in 10.0 mi SSW 10.4 mph - N/A   Clear
10:15 PM 18.3 °F 4.6 °F 9.3 °F 68% 30.38 in 10.0 mi SSW 13.8 mph - N/A   Clear
10:35 PM 18.1 °F 5.0 °F 9.1 °F 68% 30.38 in 10.0 mi SSW 12.7 mph - N/A   Clear
10:55 PM 18.5 °F 4.9 °F 9.5 °F 68% 30.37 in 10.0 mi SSW 13.8 mph - N/A   Clear
11:15 PM 18.5 °F 5.5 °F 9.7 °F 68% 30.37 in 10.0 mi SSW 12.7 mph 18.4 mph N/A   Clear
11:35 PM 18.5 °F 4.3 °F 10.0 °F 70% 30.36 in 10.0 mi SSW 15.0 mph 20.7 mph N/A   Clear
11:55 PM 18.5 °F 3.8 °F 10.2 °F 70% 30.35 in 10.0 mi SSW 16.1 mph 20.7 mph N/A   Clear